When you browse on this site, cookies collect data to enhance your experience and personalize the content and advertising you see.
Visit our Privacy Policy to learn more. By continuing to use the site, you agree to this use of cookies and data.

Hourly Weather Rechytsa

Today, 9 July, Thursday

Time Temperature Precipitation Wind Pressure Humidity
00:00 +12°C° 0 mm 2 mps 749 mmHg 85%
01:00 +12°C° 0 mm 2 mps 749 mmHg 88%
02:00 +12°C° 0 mm 2 mps 749 mmHg 91%
03:00 +11°C° 0 mm 3 mps 750 mmHg 92%
04:00 +11°C° 0 mm 3 mps 750 mmHg 93%
05:00 +11°C° 0 mm 3 mps 750 mmHg 93%
06:00 +12°C° 0 mm 3 mps 750 mmHg 87%
07:00 +14°C° 0 mm 3 mps 750 mmHg 81%
08:00 +17°C° 0 mm 3 mps 751 mmHg 72%
09:00 +17°C° 0.1 mm 3 mps 751 mmHg 69%
10:00 +18°C° 0.1 mm 4 mps 751 mmHg 66%
11:00 +19°C° 0.1 mm 4 mps 751 mmHg 63%
12:00 +20°C° 0.3 mm 4 mps 752 mmHg 61%
13:00 +20°C° 0.3 mm 4 mps 752 mmHg 59%
14:00 +21°C° 0.3 mm 3 mps 752 mmHg 56%
15:00 +21°C° 0.1 mm 3 mps 752 mmHg 58%
16:00 +20°C° 0.1 mm 3 mps 752 mmHg 60%
17:00 +20°C° 0.1 mm 3 mps 752 mmHg 63%
18:00 +19°C° 0 mm 2 mps 752 mmHg 68%
19:00 +17°C° 0 mm 2 mps 752 mmHg 73%
20:00 +16°C° 0 mm 1 mps 752 mmHg 78%
21:00 +15°C° 0 mm 1 mps 752 mmHg 80%
22:00 +14°C° 0 mm 1 mps 752 mmHg 82%
23:00 +13°C° 0 mm 1 mps 753 mmHg 84%

Tomorrow, 10 July, Friday

Time Temperature Precipitation Wind Pressure Humidity
00:00 +13°C° 0 mm 1 mps 753 mmHg 84%
01:00 +13°C° 0 mm 1 mps 753 mmHg 84%
02:00 +13°C° 0 mm 2 mps 753 mmHg 85%
03:00 +13°C° 0 mm 2 mps 753 mmHg 86%
04:00 +13°C° 0 mm 2 mps 753 mmHg 87%
05:00 +13°C° 0 mm 2 mps 753 mmHg 88%
06:00 +14°C° 0 mm 3 mps 753 mmHg 83%
07:00 +17°C° 0 mm 3 mps 753 mmHg 77%
08:00 +19°C° 0 mm 4 mps 753 mmHg 72%
09:00 +20°C° 0 mm 4 mps 753 mmHg 68%
10:00 +21°C° 0 mm 5 mps 752 mmHg 64%
11:00 +23°C° 0 mm 5 mps 752 mmHg 60%
12:00 +25°C° 0 mm 5 mps 752 mmHg 59%
13:00 +25°C° 0 mm 5 mps 752 mmHg 58%
14:00 +26°C° 0 mm 5 mps 751 mmHg 57%
15:00 +26°C° 0 mm 5 mps 751 mmHg 60%
16:00 +26°C° 0 mm 4 mps 751 mmHg 63%
17:00 +26°C° 0 mm 4 mps 751 mmHg 66%
18:00 +25°C° 0.1 mm 4 mps 751 mmHg 73%
19:00 +22°C° 0.1 mm 3 mps 751 mmHg 79%
20:00 +21°C° 0.1 mm 3 mps 751 mmHg 85%
21:00 +20°C° 0.3 mm 3 mps 751 mmHg 87%
22:00 +20°C° 0.3 mm 3 mps 751 mmHg 88%
23:00 +19°C° 0.3 mm 3 mps 751 mmHg 90%

Day after tomorrow, 11 July, Saturday

Time Temperature Precipitation Wind Pressure Humidity
00:00 +19°C° 0 mm 3 mps 751 mmHg 91%
01:00 +19°C° 0 mm 4 mps 751 mmHg 91%
02:00 +19°C° 0 mm 4 mps 751 mmHg 92%
03:00 +19°C° 0 mm 3 mps 751 mmHg 93%
04:00 +18°C° 0 mm 3 mps 751 mmHg 93%
05:00 +18°C° 0 mm 3 mps 752 mmHg 94%
06:00 +20°C° 0 mm 3 mps 752 mmHg 89%
07:00 +21°C° 0 mm 3 mps 752 mmHg 85%
08:00 +23°C° 0 mm 4 mps 752 mmHg 80%
09:00 +26°C° 0.1 mm 4 mps 752 mmHg 74%
10:00 +27°C° 0.1 mm 4 mps 752 mmHg 67%
11:00 +29°C° 0.1 mm 4 mps 752 mmHg 61%
12:00 +30°C° 0 mm 4 mps 751 mmHg 58%
13:00 +30°C° 0 mm 4 mps 751 mmHg 56%
14:00 +32°C° 0 mm 4 mps 751 mmHg 53%
15:00 +32°C° 0 mm 4 mps 751 mmHg 56%
16:00 +30°C° 0 mm 3 mps 751 mmHg 59%
17:00 +30°C° 0 mm 3 mps 750 mmHg 61%
18:00 +28°C° 0.2 mm 3 mps 750 mmHg 69%
19:00 +26°C° 0.2 mm 3 mps 750 mmHg 77%
20:00 +24°C° 0.2 mm 3 mps 751 mmHg 84%
21:00 +22°C° 0.2 mm 3 mps 751 mmHg 87%
22:00 +21°C° 0.2 mm 3 mps 751 mmHg 89%
23:00 +21°C° 0.2 mm 3 mps 751 mmHg 92%

12 July, Sunday

Time Temperature Precipitation Wind Pressure Humidity
00:00 +20°C° 0.2 mm 3 mps 751 mmHg 93%
01:00 +20°C° 0.2 mm 2 mps 751 mmHg 93%
02:00 +19°C° 0.2 mm 2 mps 751 mmHg 94%
03:00 +19°C° 0 mm 2 mps 751 mmHg 94%
04:00 +19°C° 0 mm 2 mps 751 mmHg 94%
05:00 +19°C° 0 mm 2 mps 751 mmHg 94%
06:00 +20°C° 0 mm 2 mps 751 mmHg 90%
07:00 +23°C° 0 mm 2 mps 751 mmHg 86%
08:00 +24°C° 0 mm 1 mps 751 mmHg 81%
09:00 +25°C° 0.4 mm 2 mps 751 mmHg 79%
10:00 +25°C° 0.4 mm 2 mps 751 mmHg 77%
11:00 +26°C° 0.4 mm 2 mps 751 mmHg 74%
12:00 +26°C° 0.8 mm 2 mps 751 mmHg 75%
13:00 +26°C° 0.8 mm 2 mps 750 mmHg 75%
14:00 +26°C° 0.8 mm 2 mps 750 mmHg 76%
15:00 +25°C° 1.1 mm 3 mps 750 mmHg 78%
16:00 +25°C° 1.1 mm 3 mps 750 mmHg 81%
17:00 +23°C° 1.1 mm 4 mps 749 mmHg 83%
18:00 +22°C° 0.3 mm 4 mps 749 mmHg 86%
19:00 +21°C° 0.3 mm 4 mps 749 mmHg 89%
20:00 +20°C° 0.3 mm 4 mps 749 mmHg 92%
21:00 +19°C° 0.2 mm 4 mps 749 mmHg 94%
22:00 +19°C° 0.2 mm 4 mps 748 mmHg 95%
23:00 +18°C° 0.2 mm 4 mps 748 mmHg 96%

13 July, Monday

Time Temperature Precipitation Wind Pressure Humidity
00:00 +18°C° 0.1 mm 3 mps 748 mmHg 97%
01:00 +18°C° 0.1 mm 3 mps 748 mmHg 97%
02:00 +17°C° 0.1 mm 2 mps 747 mmHg 97%
03:00 +17°C° 0 mm 2 mps 747 mmHg 97%
04:00 +17°C° 0 mm 2 mps 747 mmHg 96%
05:00 +17°C° 0 mm 2 mps 746 mmHg 96%
06:00 +20°C° 0 mm 1 mps 746 mmHg 90%
07:00 +21°C° 0 mm 1 mps 746 mmHg 85%
08:00 +23°C° 0 mm 1 mps 746 mmHg 80%
09:00 +23°C° 0.4 mm 1 mps 746 mmHg 77%
10:00 +24°C° 0.4 mm 2 mps 746 mmHg 75%
11:00 +25°C° 0.4 mm 2 mps 746 mmHg 72%
12:00 +25°C° 0.7 mm 3 mps 746 mmHg 73%
13:00 +25°C° 0.7 mm 3 mps 745 mmHg 75%
14:00 +25°C° 0.7 mm 4 mps 745 mmHg 76%
15:00 +23°C° 0.4 mm 4 mps 745 mmHg 77%
16:00 +22°C° 0.4 mm 4 mps 745 mmHg 79%
17:00 +21°C° 0.4 mm 4 mps 745 mmHg 81%
18:00 +20°C° 0.1 mm 4 mps 745 mmHg 83%
19:00 +19°C° 0.1 mm 4 mps 745 mmHg 86%
20:00 +18°C° 0.1 mm 4 mps 745 mmHg 88%
21:00 +17°C° 0 mm 4 mps 744 mmHg 90%
22:00 +17°C° 0 mm 3 mps 744 mmHg 91%
23:00 +16°C° 0 mm 3 mps 744 mmHg 92%

14 July, Tuesday

Time Temperature Precipitation Wind Pressure Humidity
00:00 +16°C° 0 mm 3 mps 744 mmHg 92%
01:00 +16°C° 0 mm 3 mps 744 mmHg 92%
02:00 +16°C° 0 mm 3 mps 744 mmHg 91%
03:00 +16°C° 0.1 mm 3 mps 743 mmHg 92%
04:00 +16°C° 0.1 mm 3 mps 743 mmHg 93%
05:00 +16°C° 0.1 mm 3 mps 743 mmHg 93%
06:00 +16°C° 0.1 mm 3 mps 743 mmHg 93%
07:00 +16°C° 0.1 mm 2 mps 743 mmHg 93%
08:00 +16°C° 0.1 mm 2 mps 742 mmHg 93%
09:00 +16°C° 0.2 mm 3 mps 742 mmHg 93%
10:00 +16°C° 0.2 mm 3 mps 742 mmHg 92%
11:00 +17°C° 0.2 mm 3 mps 742 mmHg 91%
12:00 +17°C° 0.5 mm 3 mps 742 mmHg 89%
13:00 +18°C° 0.5 mm 3 mps 742 mmHg 87%
14:00 +18°C° 0.5 mm 3 mps 742 mmHg 84%
15:00 +19°C° 0.2 mm 3 mps 741 mmHg 82%
16:00 +19°C° 0.2 mm 3 mps 741 mmHg 80%
17:00 +20°C° 0.2 mm 3 mps 741 mmHg 78%
18:00 +19°C° 0.1 mm 3 mps 740 mmHg 82%
19:00 +18°C° 0.1 mm 3 mps 740 mmHg 87%
20:00 +17°C° 0.1 mm 2 mps 740 mmHg 91%
21:00 +17°C° 0.3 mm 2 mps 740 mmHg 93%
22:00 +16°C° 0.3 mm 2 mps 740 mmHg 95%
23:00 +16°C° 0.3 mm 2 mps 740 mmHg 97%
Show more